Tracking 19638 objects as of 20-Apr-2019
HD Live streaming from Space Station
objects crossing your sky now

CZ-4 DEB

Track CZ-4 DEB now!
10-day predictions


NORAD ID: 26152
Int'l Code: 1999-057AN
Perigee: 734.9 km
Apogee: 1,529.6 km
Inclination: 99.2 °
Period: 107.8 minutes
Semi major axis: 7503 km
RCS: 0.0141 m2 (small)
Launch date: October 14, 1999
Source: People's Republic of China (PRC)
Launch site: Taiyaun Space Center, China (TSC)

Note: This is SATELLITE DEBRIS
aabbcc
Your satellite tracking list
Your tracking list is empty




NASA's NSSDC Master Catalog

Two Line Element Set (TLE):
1 26152U 99057AN  19109.16221279  .00000197  00000-0  20933-3 0  9993
2 26152  99.1695 326.5798 0529580 317.0537 160.1754 13.35766356928662
Source of the keplerian elements: AFSPC